Tracking 25703 objects as of 2-Jul-2022
HD Live streaming from Space Station
objects crossing your sky now

FLOCK 4P 5

Track FLOCK 4P 5 now!
10-day predictions
FLOCK 4P 5 is classified as:


NORAD ID: 44818
Int'l Code: 2019-081Q
Perigee: 482.3 km
Apogee: 496.4 km
Inclination: 97.4 °
Period: 94.2 minutes
Semi major axis: 6860 km
RCS: Unknown
Launch date: November 27, 2019
Source: United States (US)
Launch site: SRIHARIKOTA (SRI)
aabbcc
Your satellite tracking list
Your tracking list is empty




NASA's NSSDC Master Catalog

Two Line Element Set (TLE):
1 44818U 19081Q   22183.39976711  .00004615  00000-0  17221-3 0  9995
2 44818  97.4012 248.5273 0010281 152.3430 207.8358 15.27861036144192
Source of the keplerian elements: AFSPC